IZ2OSD Weather Reports


time (UTC)temp
F
wind
direction
speed
knots
gust
knots
rain 1hr
in
rain 24hr
in
rain mn
in
humidity
%
barometer
mb
20260904045500 68 337 0.0 1.7 0.00 0.00 0.00 76 1018.6
20260904044457 69 0.0 0.0 0.00 0.00 0.00 75 1018.3
20260904043136 68 315 0.9 1.7 0.00 0.00 0.00 76 1018.6
20260904042127 69 0.0 0.0 0.00 0.00 0.00 76 1018.4
20260904041143 69 0.0 0.0 0.00 0.00 0.00 76 1018.3
20260904040118 68 0.0 0.0 0.00 0.00 0.00 77 1018.5
20260904035115 69 0.0 0.0 0.00 0.00 0.00 76 1018.6
20260904034112 69 0.0 0.0 0.00 0.00 0.00 77 1018.3
20260904033109 69 0.0 0.0 0.00 0.00 0.00 75 1018.5
20260904032107 70 0.0 0.0 0.00 0.00 0.00 74 1018.7
20260904031124 70 0.0 0.0 0.00 0.00 0.00 74 1018.6
20260904030058 70 0.0 0.0 0.00 0.00 0.00 74 1018.5
20260904025108 70 0.0 0.0 0.00 0.00 0.00 75 1018.4
20260904024045 70 0.0 0.0 0.00 0.00 0.00 75 1018.4
20260904023037 70 0.0 0.0 0.00 0.00 0.00 74 1018.4
20260904022025 70 0.0 0.0 0.00 0.00 0.00 74 1018.7
20260904021041 71 0.0 0.0 0.00 0.00 0.00 72 1018.3
20260904020013 72 0.0 0.0 0.00 0.00 0.00 71 1018.3
20260904015011 72 0.0 0.0 0.00 0.00 0.00 71 1018.4
20260904014010 72 0.0 0.0 0.00 0.00 0.00 70 1018.5
20260904013006 72 0.0 0.0 0.00 0.00 0.00 69 1018.3
20260904012004 72 0.0 0.0 0.00 0.00 0.00 67 1018.3
20260904011001 72 0.0 0.0 0.00 0.00 0.00 68 1018.5
20260904005958 72 315 0.9 1.7 0.00 0.00 0.00 68 1018.5
20260904004946 73 0.0 0.0 0.00 0.00 0.00 67 1018.2
20260904003519 73 0.0 0.0 0.00 0.00 0.00 66 1018.5
20260904002425 73 0.0 0.0 0.00 0.00 0.00 67 1018.6
20260904001421 72 0.0 0.0 0.00 0.00 0.00 67 1018.6
20260904000411 73 0.0 0.0 0.00 0.00 0.00 67 1018.7
20260903235425 73 0.0 0.0 0.00 0.00 0.00 67 1018.5
20260903234401 73 0.0 0.0 0.00 0.00 0.00 68 1018.7
20260903233400 73 315 0.0 0.9 0.00 0.00 0.00 68 1018.9
20260903232357 73 0.0 0.0 0.00 0.00 0.00 67 1018.6
20260903231352 74 0.0 0.0 0.00 0.00 0.00 65 1018.6
20260903230350 73 0.0 0.9 0.00 0.00 0.00 66 1018.5
20260903225347 73 0.0 0.0 0.00 0.00 0.00 67 1018.6
20260903224340 73 0.0 0.0 0.00 0.00 0.00 68 1018.5
20260903223337 74 315 0.9 2.6 0.00 0.00 0.00 67 1018.6
20260903222335 74 315 0.9 1.7 0.00 0.00 0.00 67 1018.6
20260903221348 73 315 0.9 1.7 0.00 0.00 0.00 68 1018.7
20260903220323 75 0.0 0.0 0.00 0.00 0.00 65 1018.5
20260903215313 75 0.0 0.0 0.00 0.00 0.00 66 1018.6
20260903214350 75 0.0 0.0 0.00 0.00 0.00 65 1018.5
20260903213305 75 0.0 0.0 0.00 0.00 0.00 67 1018.4
20260903212306 74 0.0 0.0 0.00 0.00 0.00 70 1018.3
20260903211338 74 0.0 0.0 0.00 0.00 0.00 70 1018.3
20260903205349 78 0.0 0.0 0.00 0.00 0.00 61 1018.5
20260903204343 78 0.0 0.0 0.00 0.00 0.00 61 1018.4
20260903203339 78 0.0 0.0 0.00 0.00 0.00 61 1018.4
20260903202336 78 0.0 0.0 0.00 0.00 0.00 61 1018.4
20260903201333 79 0.0 0.0 0.00 0.00 0.00 59 1018.1
20260903200329 79 0.0 0.0 0.00 0.00 0.00 59 1018.4
20260903195326 79 0.0 0.0 0.00 0.00 0.00 58 1018.3
20260903194322 80 0.0 0.0 0.00 0.00 0.00 58 1017.9
20260903193353 80 0.0 0.0 0.00 0.00 0.00 58 1018.1
20260903192309 80 0.0 0.0 0.00 0.00 0.00 58 1018.1
20260903191258 80 0.0 0.0 0.00 0.00 0.00 58 1017.9
20260903185800 81 0.0 0.0 0.00 0.00 0.00 59 1017.8
20260903184757 81 0.0 0.0 0.00 0.00 0.00 58 1017.7
20260903183753 82 0.0 0.0 0.00 0.00 0.00 58 1017.6
20260903182810 83 0.0 0.0 0.00 0.00 0.00 55 1017.4
20260903181747 84 0.0 0.0 0.00 0.00 0.00 54 1017.4
20260903180737 84 0.0 0.0 0.00 0.00 0.00 53 1017.3
20260903175733 85 0.0 0.0 0.00 0.00 0.00 53 1017.3
20260903174745 86 0.0 0.0 0.00 0.00 0.00 51 1017.2
20260903173718 86 0.0 0.0 0.00 0.00 0.00 49 1016.9
20260903172716 86 0.0 0.9 0.00 0.00 0.00 48 1017.2
20260903171712 86 0.0 0.0 0.00 0.00 0.00 47 1017.1
20260903170710 87 0.0 0.0 0.00 0.00 0.00 46 1017.0
20260903165706 87 0.0 0.0 0.00 0.00 0.00 45 1017.2
20260903164703 88 315 0.0 0.9 0.00 0.00 0.00 46 1017.1
20260903163700 88 270 0.0 2.6 0.00 0.00 0.00 45 1017.1
20260903161816 89 0.0 0.9 0.00 0.00 0.00 41 1017.1
20260903160832 89 0.0 0.0 0.00 0.00 0.00 41 1017.1
20260903155802 89 0.0 0.0 0.00 0.00 0.00 40 1017.3
20260903154758 89 315 0.0 1.7 0.00 0.00 0.00 39 1017.2
20260903153755 89 0.0 0.0 0.00 0.00 0.00 43 1017.0
20260903152751 89 0.0 0.0 0.00 0.00 0.00 44 1017.2
20260903151747 89 0.0 0.9 0.00 0.00 0.00 43 1017.1
20260903150744 90 0.0 0.0 0.00 0.00 0.00 42 1017.3
20260903145740 90 0.0 0.0 0.00 0.00 0.00 42 1017.4
20260903144736 89 0.0 0.0 0.00 0.00 0.00 42 1017.2
20260903143749 89 0.0 0.9 0.00 0.00 0.00 43 1017.3
20260903142723 89 0.0 1.7 0.00 0.00 0.00 43 1017.5
20260903141802 90 0.0 0.9 0.00 0.00 0.00 42 1017.4
20260903140717 90 135 0.0 1.7 0.00 0.00 0.00 41 1017.8
20260903135713 90 0 0.9 3.5 0.00 0.00 0.00 41 1017.5
20260903134724 90 337 0.0 0.9 0.00 0.00 0.00 45 1017.7
20260903133659 90 0.0 0.9 0.00 0.00 0.00 45 1017.9
20260903131752 90 315 0.0 1.7 0.00 0.00 0.00 45 1018.1
20260903130749 90 0.0 0.9 0.00 0.00 0.00 45 1018.3
20260903125746 90 0.0 0.0 0.00 0.00 0.00 44 1018.5
20260903124737 89 0.0 0.9 0.00 0.00 0.00 45 1018.3
20260903123727 88 315 0.0 1.7 0.00 0.00 0.00 46 1018.6
20260903122724 89 315 2.6 2.6 0.00 0.00 0.00 46 1018.6
20260903121742 89 315 0.0 1.7 0.00 0.00 0.00 47 1018.7
20260903120717 89 135 0.0 1.7 0.00 0.00 0.00 47 1018.9
20260903115713 86 0.0 0.0 0.00 0.00 0.00 52 1019.0
20260903114703 86 112 0.0 0.9 0.00 0.00 0.00 52 1019.0
20260903113659 88 112 0.0 0.9 0.00 0.00 0.00 49 1018.8
20260903112649 87 315 1.7 2.6 0.00 0.00 0.00 50 1018.8
20260903111646 86 135 1.7 3.5 0.00 0.00 0.00 51 1018.8
20260903110636 88 315 0.0 1.7 0.00 0.00 0.00 50 1019.1
20260903105651 87 135 1.7 2.6 0.00 0.00 0.00 51 1019.2
20260903104626 87 315 0.0 0.9 0.00 0.00 0.00 51 1019.3
20260903103644 84 315 1.7 5.2 0.00 0.00 0.00 55 1019.4
20260903102615 84 135 0.0 1.7 0.00 0.00 0.00 55 1019.6
20260903101611 86 315 0.0 0.9 0.00 0.00 0.00 52 1019.7
20260903100605 85 315 0.9 1.7 0.00 0.00 0.00 54 1020.0
20260903095643 86 337 0.9 1.7 0.00 0.00 0.00 52 1019.7
20260903094601 85 270 0.0 1.7 0.00 0.00 0.00 54 1019.9
20260903093559 83 292 1.7 2.6 0.00 0.00 0.00 55 1019.9
20260903092554 82 135 0.9 3.5 0.00 0.00 0.00 56 1019.8
20260903091550 84 135 1.7 3.5 0.00 0.00 0.00 53 1019.6
20260903090547 84 315 1.7 2.6 0.00 0.00 0.00 53 1019.6
20260903085537 82 292 1.7 2.6 0.00 0.00 0.00 55 1019.9
20260903084534 81 112 1.7 3.5 0.00 0.00 0.00 55 1019.6
20260903083529 80 337 2.6 5.2 0.00 0.00 0.00 56 1019.8
20260903082526 81 337 1.7 2.6 0.00 0.00 0.00 56 1019.8
20260903081542 82 292 1.7 2.6 0.00 0.00 0.00 55 1019.8
20260903075540 81 315 1.7 3.5 0.00 0.00 0.00 56 1019.5
20260903074537 78 315 2.6 5.2 0.00 0.00 0.00 58 1019.4
20260903073524 78 292 2.6 3.5 0.00 0.00 0.00 59 1019.3
20260903072518 77 315 2.6 5.2 0.00 0.00 0.00 60 1019.4
20260903071515 77 315 2.6 3.5 0.00 0.00 0.00 60 1019.4
20260903070512 77 315 1.7 2.6 0.00 0.00 0.00 60 1019.4
20260903064609 75 315 1.7 2.6 0.00 0.00 0.00 63 1019.2
20260903063545 74 315 1.7 3.5 0.00 0.00 0.00 65 1019.2
20260903062624 74 315 1.7 2.6 0.00 0.00 0.00 64 1019.1
20260903061537 73 315 1.7 2.6 0.00 0.00 0.00 64 1019.0
20260903060528 72 315 1.7 1.7 0.00 0.00 0.00 67 1018.8
20260903055543 71 315 0.9 1.7 0.00 0.00 0.00 68 1018.8
20260903054519 71 292 1.7 1.7 0.00 0.00 0.00 68 1018.5
20260903053516 70 315 0.9 1.7 0.00 0.00 0.00 70 1018.7
20260903052513 70 315 0.9 1.7 0.00 0.00 0.00 71 1018.5
20260903051506 69 315 0.9 1.7 0.00 0.00 0.00 73 1018.5
20260903051002 69 315 0.9 1.7 0.00 0.00 0.00 74 1018.5
20260903045959 68 315 0.0 0.9 0.00 0.00 0.00 76 1018.4